This demonstration page uses our WeatherBlox Daily Observations layout. Learn more.

Left ArrowRight Arrow

40.92501, -98.34201

Hourly Observations for August 1, 2020

Temp ( °F °C ) Dew Point ( °F °C ) Humidity (%) Winds ( mph kmh ) Pressure ( in mb ) Visibility ( mi km ) Precip ( " mm )
12:53 am 00:53 Clear 65 18.3 61 16.1 87 87 Calm 30.06 1018 10 16 0.00 0.00
1:53 am 01:53 Clear 64 17.8 60 15.6 87 87 W 5 7 30.06 1018 10 16 0.00 0.00
2:53 am 02:53 Clear 63 17.2 59 15 87 87 W 6 9 30.04 1017 9 14 0.00 0.00
3:53 am 03:53 Clear 63 17.2 60 15.6 90 90 S 6 9 30.01 1016 7 11 0.00 0.00
4:53 am 04:53 Clear 65 18.3 60 15.6 84 84 Calm 30.02 1017 10 16 0.00 0.00
5:53 am 05:53 Clear 65 18.3 60 15.6 84 84 W 7 11 30.03 1017 10 16 0.00 0.00
6:53 am 06:53 Partly Cloudy 64 17.8 60 15.6 87 87 W 6 9 30.04 1017 8 13 0.00 0.00
7:53 am 07:53 Partly Cloudy 66 18.9 61 16.1 84 84 W 7 11 30.05 1018 10 16 0.00 0.00
8:53 am 08:53 Mostly Sunny 67 19.4 62 16.7 84 84 WNW 6 9 30.05 1018 8 13 0.00 0.00
9:53 am 09:53 Mostly Cloudy 72 22.2 62 16.7 71 71 NW 8 13 30.04 1017 10 16 0.00 0.00
10:53 am 10:53 Sunny 78 25.6 61 16.1 56 56 NW 12 19 30.03 1017 10 16 0.00 0.00
11:53 am 11:53 Sunny 79 26.1 62 16.7 56 56 NNW 14 22 30.04 1017 10 16 0.00 0.00
12:53 pm 12:53 Sunny 81 27.2 65 18.3 58 58 NW 13 20 30.03 1017 10 16 0.00 0.00
1:53 pm 13:53 Mostly Sunny 86 30 65 18.3 49 49 N 12 19 30.01 1016 10 16 0.00 0.00
2:53 pm 14:53 Partly Cloudy 81 27.2 62 16.7 53 53 N 15 24 30.01 1016 10 16 0.00 0.00
3:53 pm 15:53 Mostly Sunny 84 28.9 62 16.7 48 48 N 18 30 30.01 1016 10 16 0.00 0.00
4:53 pm 16:53 Sunny 83 28.3 61 16.1 48 48 N 16 26 29.99 1016 10 16 0.00 0.00
5:53 pm 17:53 Sunny 83 28.3 62 16.7 49 49 N 13 20 29.98 1015 10 16 0.00 0.00
6:53 pm 18:53 Mostly Sunny 78 25.6 63 17.2 60 60 NNE 18 30 30.00 1016 10 16 0.00 0.00
7:53 pm 19:53 Mostly Sunny 77 25 64 17.8 64 64 NNE 8 13 30.01 1016 10 16 0.00 0.00
8:53 pm 20:53 Clear 72 22.2 64 17.8 76 76 N 7 11 30.03 1017 10 16 0.00 0.00
9:53 pm 21:53 Mostly Clear 69 20.6 63 17.2 81 81 N 8 13 30.05 1018 10 16 0.00 0.00
10:53 pm 22:53 Clear 67 19.4 62 16.7 84 84 N 7 11 30.06 1018 10 16 0.00 0.00
11:53 pm 23:53 Clear 65 18.3 60 15.6 84 84 N 9 15 30.07 1018 10 16 0.00 0.00

Powered by AerisWeather